DMSP 5D-2 F13 DEB, 40558

Orbit data source: Space-Track

DMSP 5D-2 F13 DEB, 40558 is space debris in SSO originally from a launch on Fri, 24 Mar 1995 UTC launched from the Air Force Western Test Range (AFWTR). Debris objects in space refer to the collection of defunct objects orbiting the Earth. Examples of debris include non-operational satellites, rocket bodies, and fragments generated from explosions, collisions, or faulty payload assembly.

Loading next visibility...
Identifier
40558, 1995-015DR
Orbit
SSO
Country
Flag of USUS
Related business
Manufacturer
Unknown
Mission
Spacecraft
Bus & Motor
Unknown
Mass
Unknown
Launch date (UTC)
1995-03-24 (31 years ago)
Launch vehicle
Unknown
Launch site
Air Force Western Test Range (AFWTR)
Object type
Payload
Rocket body
Debris
Shape & HBR
Unknown shape, 0.1 m
Radar Cross Section
Small (<0.1 m²)

Expand to show TLE details & history
Last TLE update: 2 days ago

TLE from 2 days ago
0 DMSP 5D-2 F13 DEB
1 40558U 95015DR  25349.42160253  .00003152  00000-0  13991-2 0  9994
2 40558  98.9526 335.2279 0043122 232.6307 127.0940 14.23261265550396
Epoch: 2025-12-15T10:07Z
TLE epoch observation values (Epoch: 2025-12-15T10:07:06.458Z)
Latitude
-0.00003°
Longitude
99.13059°
Altitude
836.05 km
Speed
7.425 km/s
True Right ascension
22h 20m 54s
True Declination
0° 00' 00"
Sunlit
Object was in daylight at epoch
Visualization orbit readout
Latitude
Unknown
Longitude
Unknown
Altitude
Unknown
Speed
Unknown
Apparent Right ascension
Unknown
Apparent Declination
Unknown
Sunlit
N/A
Visualization observer readout
Local Sidereal Time
08:38:15
Azimuth
Unknown
Elevation
Unknown
Doppler factor
Unknown
Orbital elements
Apogee altitude
842.514 km
Perigee altitude
780.507 km
Semi-major axis
7,189.647 km
Eccentricity
0.00431
Inclination
98.9526°
RAAN
335.2279°
Arg. of periapsis
232.6307°
True anomaly
127.48687°
Mean anomaly
127.094°
Eccentric anomaly
127.29056°
Mean motion
3.56026 °/min
Orbital period
101.12 mins
BSTAR
0.0013991

Documentation

Showing up to 5 results
|